weather.gov     
National Weather Service

Weather Roundup
NWS Homepage
This page is being discontinued on March 12, 2014.
The same data is available at this site. Please update your bookmarks.
Thank you, and we apologize for the inconvenience.
Please send an email to SR-SRH.Webmaster@noaa.gov with any concerns.


Current Version
Previous Version:    01  02  03  04  05  06  07  08  09  10  11  12  13  14  15  16  17  18  19  20  21  22  23  24  25  26  27  28  29  30  
   31  32  33  34  35  36  37  38  39  40  41  42  43  44  45  46  47  48  49  50  51  52  53  54  55  56  57  58  59  60  
[Printable]
607
NZUS99 KSGF 231707
HRRSGF

HOURLY WEATHER
NATIONAL WEATHER SERVICE SPRINGFIELD MO
1200 PM CDT THU OCT 23 2014

......SGF CWA......

CITY           SKY/WX    TMP DP  RH WIND       PRES   REMARKS
SPRINGFIELD    CLOUDY    56  49  77 S9        30.17F
JOPLIN         LGT RAIN  57  56  96 S10       30.18S FOG
WEST PLAINS    CLOUDY    54  43  66 S5        30.22F
ROLLA          CLOUDY    57  44  62 S13       30.17S
OSAGE BEACH    CLOUDY    57  46  67 SW7       30.17S
BRANSON        CLOUDY    61  48  63 NE5       30.20F

......SURROUNDING SGF CWA......

CITY           SKY/WX    TMP DP  RH WIND       PRES   REMARKS
CHANUTE        PTSUNNY   63  58  83 S15       30.14S
PARSONS        CLOUDY    63  58  83 S10       30.16S
COFFEYVILLE    LGT RAIN  62  58  86 S14       30.15F
EMPORIA        CLOUDY    64  61  90 SW13      30.11S
GROVE OK       DRIZZLE   55  55 100 S3        30.21S
ROGERS AR      CLOUDY    56  52  86 S6        30.20F
SILOAM SPRINGS CLOUDY    55  48  76 CALM      30.22R
HARRISON AR    CLOUDY    59  49  69 SE6       30.20S
NEAR YELLVILLE CLOUDY    55  45  67 SE5       30.21F

......KANSAS AND MISSOURI......

CITY           SKY/WX    TMP DP  RH WIND       PRES   REMARKS
KANSAS CTY INT CLOUDY    63  60  90 SW8       30.11R
DOWNTOWN KC    CLOUDY    65  60  84 SW8       30.11R
COLUMBIA       CLOUDY    57  47  69 S10       30.16R
SEDALIA        CLOUDY    60  50  69 SW9       30.15F
ST JOSEPH      CLOUDY    64  61  90 S7        30.09S
ST LOUIS       CLOUDY    60  43  53 S5        30.20F
SPIRIT OF STL  CLOUDY    59  44  57 CALM      30.19F
KIRKSVILLE     PTSUNNY   62  53  72 SW9       30.12F
WICHITA        CLOUDY    67  60  78 S8        30.12S
TOPEKA         CLOUDY    67  62  84 SW10      30.10R
OLATHE         CLOUDY    63  60  90 SW7G17    30.11R

......TENNESSEE......

CITY           SKY/WX    TMP DP  RH WIND       PRES   REMARKS
MEMPHIS        CLOUDY    65  51  61 CALM      30.20F
NASHVILLE      MOSUNNY   58  42  55 E7        30.21F

......ARKANSAS.......

CITY           SKY/WX    TMP DP  RH WIND       PRES   REMARKS
FAYETTEVILLE   LGT RAIN  57  52  83 W3        30.21S
FT SMITH       SUNNY     65  49  56 NE7       30.20F
LITTLE ROCK    CLOUDY    60  47  61 NE3       30.22F

......OKLAHOMA.......

CITY           SKY/WX    TMP DP  RH WIND       PRES   REMARKS
TULSA          CLOUDY    60  58  92 S10       30.16S
PONCA CITY     SUNNY     69  58  67 S9        30.12F
MCALESTER      LGT RAIN  60  53  77 S3        30.19S
OKLAHOMA CITY  MOSUNNY   71  57  61 S13       30.13S

......IOWA............

CITY           SKY/WX    TMP DP  RH WIND       PRES   REMARKS
DES MOINES     CLOUDY    63  59  87 W6        30.05S
QUAD CITIES    CLOUDY    58  44  60 S7        30.11S

......ILLINOIS........

CITY           SKY/WX    TMP DP  RH WIND       PRES   REMARKS
QUINCY         CLOUDY    56  44  64 S8        30.14F
CHICAGO        PTSUNNY   55  41  59 SW13G20   30.18F





U.S. Dept. of Commerce
NOAA National Weather Service
1325 East West Highway
Silver Spring, MD 20910
E-mail: w-nws.webmaster@noaa.gov
Page last modified: May 16, 2007
NATIONAL WEATHER SERVICE: for Safety, for Work, for Fun - FOR LIFE